Date String (YYYY-MM-DD hh:mm:ss) UTC,Instrument flags,Ambient pressure (hPa),Sample flow (lpm),Bypass flow (lpm),Sample temperature (°C),Ambient temperature (°C),ASC tube jacket temperature (°C),LED temperature (°C),Box temperature (°C),Sample RH (%),Span deviation,Mass concentration (μg/m³),Mass concentration (μg/m³),Mass concentration (μg/m³)
DateTimeUTC,F1_M11,P_M11,Q1_M11,Q2_M11,T1_M11,T2_M11,T3_M11,T4_M11,T5_M11,U1_M11,ZSPAN_M11,X0_M11,X2_M11,X1_M11
2022-04-21 19:00:00,,0821.8,4.98,0.00,30.2,29.1,00.0,39.0,31.9,11.5,0000.4,0034.43,0009.61,0005.81
2022-04-21 19:01:00,,0821.7,5.01,0.00,30.2,29.2,00.0,39.0,31.9,11.5,0001.1,0034.98,0009.73,0005.83
2022-04-21 19:02:00,,0821.6,5.01,0.00,30.2,29.3,00.0,39.0,32.0,11.6,0000.6,0034.93,0009.77,0005.84
2022-04-21 19:03:00,,0821.7,5.00,0.00,30.2,29.4,00.0,39.1,32.0,11.7,0000.8,0034.34,0009.80,0005.87
2022-04-21 19:04:00,,0821.7,5.00,0.00,30.3,29.4,00.0,39.1,32.0,11.7,0000.2,0033.57,0009.84,0005.94
2022-04-21 19:05:00,,0821.7,4.98,0.00,30.3,29.5,00.0,39.1,32.1,11.6,0000.2,0033.34,0009.99,0006.04
2022-04-21 19:06:00,,0821.7,5.01,0.00,30.3,29.5,00.0,39.1,32.1,11.6,0002.1,0033.02,0010.18,0006.11
2022-04-21 19:07:00,,0821.6,5.00,0.00,30.4,29.5,00.0,39.1,32.1,11.9,0000.6,0032.61,0010.31,0006.15
2022-04-21 19:08:00,,0821.6,5.00,0.00,30.4,28.8,00.0,39.2,32.0,11.7,0000.8,0031.64,0010.44,0006.23
2022-04-21 19:09:00,,0821.5,5.01,0.00,30.2,26.7,00.0,39.1,31.5,11.8,0002.5,0029.51,0010.55,0006.30
2022-04-21 19:10:00,,0821.4,4.99,0.00,30.1,26.1,00.0,39.1,31.3,12.0,0003.8,0030.66,0010.60,0006.36
2022-04-21 19:11:00,,0821.4,5.00,0.00,30.0,26.5,00.0,39.1,31.3,12.2,0003.0,0031.26,0010.73,0006.44
2022-04-21 19:12:00,,0821.4,4.99,0.00,30.0,26.9,00.0,39.0,31.4,12.1,0002.9,0031.29,0010.77,0006.53
2022-04-21 19:13:00,,0821.4,5.01,0.00,29.9,27.3,00.0,39.0,31.5,12.6,0003.8,0031.21,0010.83,0006.64
2022-04-21 19:14:00,,0821.4,4.99,0.00,29.9,27.7,00.0,38.9,31.5,12.5,0003.5,0033.21,0010.94,0006.74
2022-04-21 19:15:00,,0821.4,5.01,0.00,29.9,28.0,00.0,38.9,31.6,12.5,0003.6,0034.86,0011.02,0006.81
2022-04-21 19:16:00,,0821.4,4.99,0.00,30.0,28.3,00.0,38.9,31.6,12.4,0003.3,0036.09,0010.97,0006.84
2022-04-21 19:17:00,,0821.3,5.01,0.00,30.0,28.5,00.0,38.9,31.7,12.3,0003.6,0036.76,0010.96,0006.86
2022-04-21 19:18:00,,0821.3,5.00,0.00,30.0,28.6,00.0,38.9,31.7,12.4,0004.0,0036.87,0010.93,0006.87
2022-04-21 19:19:00,,0821.4,5.00,0.00,30.0,28.8,00.0,38.9,31.8,12.2,0004.0,0037.43,0010.93,0006.89
2022-04-21 19:20:00,,0821.3,5.01,0.00,30.1,28.9,00.0,38.9,31.8,12.3,0004.0,0037.58,0010.91,0006.91
2022-04-21 19:21:00,,0821.3,4.99,0.00,30.1,29.0,00.0,38.9,31.9,12.2,0003.1,0036.55,0010.92,0006.94
2022-04-21 19:22:00,,0821.2,5.01,0.00,30.1,29.1,00.0,38.9,31.9,12.4,0004.1,0035.89,0010.86,0006.95
2022-04-21 19:23:00,,0821.2,4.99,0.00,30.1,29.2,00.0,39.0,31.9,12.4,0004.8,0037.63,0010.91,0006.97
2022-04-21 19:24:00,,0821.2,5.00,0.00,30.2,29.2,00.0,39.0,32.0,12.4,0003.0,0038.20,0010.82,0006.96
2022-04-21 19:25:00,,0821.2,5.01,0.00,30.2,29.2,00.0,39.0,32.0,12.3,0002.7,0038.51,0010.83,0006.95
2022-04-21 19:26:00,,0821.1,4.99,0.00,30.2,29.2,00.0,39.0,32.0,12.2,0003.4,0038.10,0010.95,0006.97
2022-04-21 19:27:00,,0821.1,5.02,0.00,30.2,29.3,00.0,39.0,32.0,12.3,0003.6,0037.42,0011.07,0006.99
2022-04-21 19:28:00,,0821.1,4.99,0.00,30.2,29.3,00.0,39.0,32.0,12.4,0001.8,0037.22,0011.11,0007.01
2022-04-21 19:29:00,,0821.1,5.00,0.00,30.2,27.9,00.0,39.1,31.7,12.4,-000.2,0038.14,0011.22,0007.05
2022-04-21 19:30:00,,0821.1,5.01,0.00,30.0,25.8,00.0,39.0,31.2,12.8,-000.1,0039.75,0011.20,0007.05
2022-04-21 19:31:00,,0821.1,5.00,0.00,29.9,25.6,00.0,39.0,31.1,12.6,0000.4,0039.48,0011.12,0007.03
2022-04-21 19:32:00,,0821.0,5.01,0.00,29.8,26.1,00.0,38.9,31.2,12.8,0002.1,0039.35,0011.22,0007.06
2022-04-21 19:33:00,,0821.0,5.00,0.00,29.7,26.6,00.0,38.8,31.3,13.0,0001.9,0039.64,0011.35,0007.09
2022-04-21 19:34:00,,0821.0,5.00,0.00,29.7,27.0,00.0,38.8,31.3,12.8,0001.5,0039.19,0011.38,0007.10
2022-04-21 19:35:00,,0821.0,5.00,0.00,29.7,27.4,00.0,38.8,31.4,12.9,0001.3,0038.19,0011.41,0007.09
2022-04-21 19:36:00,,0821.0,5.01,0.00,29.7,27.7,00.0,38.8,31.4,13.0,0001.0,0036.96,0011.42,0007.07
2022-04-21 19:37:00,,0821.0,4.98,0.00,29.8,28.0,00.0,38.8,31.5,12.9,0000.6,0037.74,0011.31,0007.03
2022-04-21 19:38:00,,0821.0,5.02,0.00,29.8,28.3,00.0,38.7,31.5,12.7,0000.7,0037.38,0011.15,0006.97
2022-04-21 19:39:00,,0821.0,4.99,0.00,29.8,28.5,00.0,38.7,31.6,13.0,0000.8,0037.09,0011.06,0006.91
2022-04-21 19:40:00,,0821.0,5.01,0.00,29.9,28.6,00.0,38.7,31.6,12.8,0000.7,0036.63,0010.91,0006.86
2022-04-21 19:41:00,,0821.0,5.00,0.00,29.9,28.7,00.0,38.8,31.7,12.9,0001.1,0035.98,0010.85,0006.82
2022-04-21 19:42:00,,0821.0,5.01,0.00,29.9,28.9,00.0,38.8,31.7,13.0,0000.8,0035.61,0010.81,0006.75
2022-04-21 19:43:00,,0821.0,4.98,0.00,30.0,29.0,00.0,38.8,31.7,13.0,-000.3,0037.31,0010.68,0006.69
2022-04-21 19:44:00,,0821.0,5.01,0.00,30.0,29.1,00.0,38.8,31.8,12.9,-000.1,0038.06,0010.58,0006.59
2022-04-21 19:45:00,,0820.9,4.99,0.00,30.0,29.1,00.0,38.8,31.8,12.5,-000.1,0036.96,0010.43,0006.49
2022-04-21 19:46:00,,0820.8,5.01,0.00,30.1,29.2,00.0,38.8,31.9,12.7,0000.0,0036.38,0010.26,0006.38
2022-04-21 19:47:00,,0820.8,4.99,0.00,30.1,29.3,00.0,38.9,31.9,12.8,0001.1,0036.63,0010.17,0006.29
2022-04-21 19:48:00,,0820.8,5.01,0.00,30.1,29.3,00.0,38.9,32.0,12.8,0000.8,0035.20,0010.17,0006.22
2022-04-21 19:49:00,,0820.9,4.99,0.00,30.2,29.4,00.0,38.9,32.0,12.5,0001.2,0035.46,0010.24,0006.17
2022-04-21 19:50:00,,0820.8,5.01,0.00,30.2,29.3,00.0,38.9,32.0,12.4,0000.8,0034.89,0010.24,0006.17
2022-04-21 19:51:00,,0820.8,5.00,0.00,30.2,27.7,00.0,39.0,31.7,12.4,0001.2,0035.59,0010.30,0006.19
2022-04-21 19:52:00,,0820.8,4.98,0.00,30.0,25.7,00.0,38.9,31.2,12.6,0000.3,0033.60,0010.33,0006.20
2022-04-21 19:53:00,,0820.7,5.01,0.00,29.8,25.7,00.0,38.9,31.2,12.9,0000.2,0032.74,0010.29,0006.23
2022-04-21 19:54:00,,0820.7,5.00,0.00,29.8,26.2,00.0,38.8,31.2,12.9,0000.2,0031.41,0010.34,0006.24
2022-04-21 19:55:00,,0820.7,5.01,0.00,29.7,26.7,00.0,38.8,31.3,12.8,-000.3,0031.64,0010.30,0006.25
2022-04-21 19:56:00,,0820.7,5.01,0.00,29.7,27.1,00.0,38.8,31.3,12.8,0000.2,0031.83,0010.31,0006.29
2022-04-21 19:57:00,,0820.7,4.99,0.00,29.7,27.5,00.0,38.7,31.4,12.9,0000.4,0031.71,0010.46,0006.34
2022-04-21 19:58:00,,0820.6,5.02,0.00,29.8,27.8,00.0,38.7,31.5,13.1,0001.3,0032.12,0010.49,0006.38
2022-04-21 19:59:00,,0820.6,4.99,0.00,29.8,28.1,00.0,38.7,31.5,12.9,0000.6,0033.25,0010.47,0006.42
